When you browse on this site, cookies collect data to enhance your experience and personalize the content and advertising you see.
Visit our Privacy Policy to learn more. By continuing to use the site, you agree to this use of cookies and data.

Hourly Weather Logrono

Today, 3 July, Friday

Time Temperature Precipitation Wind Pressure Humidity
00:00 +14°C° 0 mm 2 mps 730 mmHg 85%
01:00 +14°C° 0 mm 2 mps 729 mmHg 86%
02:00 +14°C° 0 mm 2 mps 729 mmHg 86%
03:00 +14°C° 0 mm 2 mps 729 mmHg 86%
04:00 +14°C° 0 mm 2 mps 730 mmHg 86%
05:00 +14°C° 0 mm 2 mps 730 mmHg 85%
06:00 +14°C° 0 mm 2 mps 730 mmHg 85%
07:00 +16°C° 0 mm 2 mps 730 mmHg 79%
08:00 +17°C° 0 mm 3 mps 730 mmHg 73%
09:00 +18°C° 0 mm 3 mps 730 mmHg 67%
10:00 +19°C° 0 mm 3 mps 730 mmHg 62%
11:00 +20°C° 0 mm 3 mps 730 mmHg 57%
12:00 +22°C° 0 mm 4 mps 730 mmHg 53%
13:00 +22°C° 0 mm 3 mps 730 mmHg 51%
14:00 +24°C° 0 mm 3 mps 730 mmHg 49%
15:00 +24°C° 0 mm 3 mps 729 mmHg 47%
16:00 +24°C° 0 mm 3 mps 730 mmHg 50%
17:00 +22°C° 0 mm 4 mps 730 mmHg 54%
18:00 +21°C° 0 mm 4 mps 730 mmHg 58%
19:00 +19°C° 0 mm 3 mps 730 mmHg 66%
20:00 +17°C° 0 mm 2 mps 730 mmHg 75%
21:00 +14°C° 0 mm 2 mps 731 mmHg 83%
22:00 +14°C° 0 mm 2 mps 731 mmHg 84%
23:00 +13°C° 0 mm 2 mps 731 mmHg 85%

Tomorrow, 4 July, Saturday

Time Temperature Precipitation Wind Pressure Humidity
00:00 +13°C° 0 mm 2 mps 731 mmHg 86%
01:00 +12°C° 0 mm 2 mps 730 mmHg 83%
02:00 +12°C° 0 mm 2 mps 730 mmHg 81%
03:00 +12°C° 0 mm 2 mps 730 mmHg 78%
04:00 +12°C° 0 mm 2 mps 730 mmHg 75%
05:00 +13°C° 0 mm 2 mps 731 mmHg 73%
06:00 +13°C° 0 mm 2 mps 731 mmHg 71%
07:00 +16°C° 0 mm 2 mps 731 mmHg 62%
08:00 +19°C° 0 mm 2 mps 731 mmHg 54%
09:00 +21°C° 0 mm 2 mps 731 mmHg 45%
10:00 +24°C° 0 mm 2 mps 731 mmHg 41%
11:00 +25°C° 0 mm 3 mps 731 mmHg 37%
12:00 +27°C° 0 mm 3 mps 731 mmHg 33%
13:00 +27°C° 0 mm 3 mps 731 mmHg 34%
14:00 +28°C° 0 mm 3 mps 731 mmHg 34%
15:00 +28°C° 0 mm 4 mps 731 mmHg 34%
16:00 +27°C° 0 mm 3 mps 731 mmHg 38%
17:00 +26°C° 0 mm 3 mps 731 mmHg 43%
18:00 +25°C° 0 mm 3 mps 731 mmHg 47%
19:00 +23°C° 0 mm 2 mps 731 mmHg 50%
20:00 +20°C° 0 mm 2 mps 731 mmHg 53%
21:00 +18°C° 0 mm 2 mps 732 mmHg 56%
22:00 +18°C° 0 mm 2 mps 731 mmHg 53%
23:00 +18°C° 0 mm 2 mps 731 mmHg 51%

Day after tomorrow, 5 July, Sunday

Time Temperature Precipitation Wind Pressure Humidity
00:00 +17°C° 0 mm 2 mps 731 mmHg 49%
01:00 +17°C° 0 mm 2 mps 731 mmHg 49%
02:00 +17°C° 0 mm 2 mps 731 mmHg 49%
03:00 +17°C° 0 mm 2 mps 730 mmHg 50%
04:00 +17°C° 0 mm 2 mps 730 mmHg 53%
05:00 +18°C° 0 mm 2 mps 730 mmHg 56%
06:00 +19°C° 0 mm 1 mps 730 mmHg 59%
07:00 +21°C° 0 mm 2 mps 730 mmHg 56%
08:00 +24°C° 0 mm 2 mps 730 mmHg 52%
09:00 +26°C° 0 mm 2 mps 731 mmHg 49%
10:00 +27°C° 0 mm 2 mps 730 mmHg 48%
11:00 +29°C° 0 mm 2 mps 730 mmHg 46%
12:00 +30°C° 0 mm 2 mps 730 mmHg 45%
13:00 +31°C° 0 mm 3 mps 730 mmHg 44%
14:00 +31°C° 0 mm 3 mps 730 mmHg 44%
15:00 +33°C° 0 mm 3 mps 730 mmHg 44%
16:00 +31°C° 0 mm 3 mps 729 mmHg 48%
17:00 +30°C° 0 mm 3 mps 729 mmHg 52%
18:00 +28°C° 0 mm 3 mps 729 mmHg 57%
19:00 +26°C° 0 mm 2 mps 729 mmHg 63%
20:00 +24°C° 0 mm 2 mps 729 mmHg 70%
21:00 +21°C° 0 mm 2 mps 730 mmHg 76%
22:00 +20°C° 0 mm 2 mps 729 mmHg 79%
23:00 +19°C° 0 mm 2 mps 729 mmHg 81%

6 July, Monday

Time Temperature Precipitation Wind Pressure Humidity
00:00 +18°C° 0 mm 2 mps 729 mmHg 84%
01:00 +17°C° 0 mm 2 mps 729 mmHg 85%
02:00 +16°C° 0 mm 2 mps 729 mmHg 87%
03:00 +16°C° 0 mm 2 mps 728 mmHg 88%
04:00 +16°C° 0 mm 2 mps 729 mmHg 87%
05:00 +17°C° 0 mm 2 mps 729 mmHg 86%
06:00 +17°C° 0 mm 2 mps 729 mmHg 86%
07:00 +18°C° 0 mm 2 mps 729 mmHg 82%
08:00 +19°C° 0 mm 3 mps 729 mmHg 78%
09:00 +21°C° 0 mm 3 mps 729 mmHg 74%
10:00 +22°C° 0 mm 3 mps 729 mmHg 70%
11:00 +24°C° 0 mm 3 mps 729 mmHg 65%
12:00 +25°C° 0 mm 4 mps 729 mmHg 61%
13:00 +25°C° 0 mm 4 mps 729 mmHg 60%
14:00 +26°C° 0 mm 4 mps 728 mmHg 58%
15:00 +26°C° 0 mm 4 mps 728 mmHg 57%
16:00 +25°C° 0 mm 4 mps 728 mmHg 62%
17:00 +22°C° 0 mm 4 mps 728 mmHg 67%
18:00 +21°C° 0 mm 5 mps 728 mmHg 72%
19:00 +19°C° 0 mm 4 mps 729 mmHg 75%
20:00 +18°C° 0 mm 3 mps 729 mmHg 79%
21:00 +16°C° 0 mm 3 mps 729 mmHg 83%
22:00 +16°C° 0 mm 3 mps 729 mmHg 85%
23:00 +14°C° 0 mm 3 mps 729 mmHg 87%

7 July, Tuesday

Time Temperature Precipitation Wind Pressure Humidity
00:00 +13°C° 0 mm 3 mps 728 mmHg 89%
01:00 +14°C° 0 mm 2 mps 728 mmHg 89%
02:00 +13°C° 0 mm 2 mps 728 mmHg 89%
03:00 +13°C° 0 mm 2 mps 728 mmHg 89%
04:00 +13°C° 0 mm 2 mps 728 mmHg 88%
05:00 +13°C° 0 mm 2 mps 728 mmHg 86%
06:00 +14°C° 0 mm 2 mps 728 mmHg 84%
07:00 +16°C° 0 mm 3 mps 728 mmHg 76%
08:00 +17°C° 0 mm 3 mps 728 mmHg 68%
09:00 +19°C° 0 mm 3 mps 728 mmHg 61%
10:00 +21°C° 0 mm 3 mps 728 mmHg 55%
11:00 +24°C° 0 mm 3 mps 728 mmHg 50%
12:00 +25°C° 0 mm 3 mps 727 mmHg 44%
13:00 +26°C° 0 mm 3 mps 727 mmHg 43%
14:00 +26°C° 0 mm 4 mps 727 mmHg 42%
15:00 +27°C° 0 mm 4 mps 727 mmHg 41%
16:00 +26°C° 0 mm 4 mps 727 mmHg 45%
17:00 +25°C° 0 mm 3 mps 727 mmHg 50%
18:00 +24°C° 0 mm 3 mps 726 mmHg 54%
19:00 +20°C° 0 mm 3 mps 727 mmHg 64%
20:00 +18°C° 0 mm 2 mps 727 mmHg 73%
21:00 +15°C° 0 mm 2 mps 727 mmHg 83%
22:00 +15°C° 0 mm 2 mps 727 mmHg 84%
23:00 +14°C° 0 mm 2 mps 727 mmHg 86%

8 July, Wednesday

Time Temperature Precipitation Wind Pressure Humidity
00:00 +13°C° 0 mm 2 mps 727 mmHg 87%
01:00 +13°C° 0 mm 2 mps 726 mmHg 85%
02:00 +13°C° 0 mm 1 mps 726 mmHg 84%
03:00 +13°C° 0 mm 1 mps 726 mmHg 82%
04:00 +14°C° 0 mm 1 mps 726 mmHg 81%
05:00 +14°C° 0 mm 1 mps 726 mmHg 80%
06:00 +15°C° 0 mm 1 mps 726 mmHg 79%
07:00 +18°C° 0 mm 1 mps 726 mmHg 72%
08:00 +20°C° 0 mm 1 mps 726 mmHg 65%
09:00 +22°C° 0 mm 1 mps 726 mmHg 58%
10:00 +24°C° 0.3 mm 1 mps 726 mmHg 55%
11:00 +25°C° 0.3 mm 2 mps 726 mmHg 52%
12:00 +27°C° 0.3 mm 3 mps 726 mmHg 49%
13:00 +28°C° 0.1 mm 3 mps 726 mmHg 46%
14:00 +29°C° 0.1 mm 3 mps 726 mmHg 44%
15:00 +30°C° 0.1 mm 3 mps 726 mmHg 41%
16:00 +29°C° 0.5 mm 3 mps 726 mmHg 47%
17:00 +28°C° 0.5 mm 3 mps 725 mmHg 53%
18:00 +27°C° 0.5 mm 3 mps 725 mmHg 59%
19:00 +25°C° 0.6 mm 2 mps 726 mmHg 68%
20:00 +21°C° 0.6 mm 2 mps 726 mmHg 77%
21:00 +19°C° 0.6 mm 2 mps 727 mmHg 87%
22:00 +19°C° 0.5 mm 2 mps 727 mmHg 88%
23:00 +18°C° 0.5 mm 2 mps 727 mmHg 89%
Show more